AEE37J LGAV-LGMK

Flight info

Callsign AEE37J
Flight time 0h 21m
Altitude 15000
Route N0369F150 KEA L995 VARIX
Aircraft A320/M-SDE2GHIJ1RTWY/SB1

Departure

Time 2026-04-22 10:31
Airport Athens Eleftherios Venizelos International Airport (LGAV)

Arrival

Time 2026-04-22 10:53
Airport Mykonos Island National Airport (LGMK)
Time Latitude Longitude Altitude Speed Heading
2026-04-22 10:01 37.94231 23.95181 301 ft 0 kts 217°
2026-04-22 10:20 37.94247 23.95197 304 ft 4 kts 217°
2026-04-22 10:20 37.94268 23.95216 301 ft 2 kts 217°
2026-04-22 10:20 37.94286 23.95232 301 ft 4 kts 205°
2026-04-22 10:21 37.94310 23.95240 301 ft 4 kts 166°
2026-04-22 10:21 37.94326 23.95229 301 ft 0 kts 127°
2026-04-22 10:25 37.94326 23.95230 301 ft 1 kts 127°
2026-04-22 10:25 37.94317 23.95245 303 ft 4 kts 127°
2026-04-22 10:25 37.94296 23.95281 301 ft 7 kts 127°
2026-04-22 10:25 37.94262 23.95338 301 ft 10 kts 127°
2026-04-22 10:26 37.94216 23.95416 301 ft 13 kts 127°
2026-04-22 10:26 37.94159 23.95512 302 ft 12 kts 127°
2026-04-22 10:26 37.94108 23.95596 300 ft 12 kts 127°
2026-04-22 10:26 37.94035 23.95644 298 ft 14 kts 203°
2026-04-22 10:27 37.93947 23.95563 298 ft 17 kts 217°
2026-04-22 10:27 37.93847 23.95468 297 ft 19 kts 216°
2026-04-22 10:27 37.93734 23.95361 298 ft 21 kts 216°
2026-04-22 10:27 37.93610 23.95243 299 ft 23 kts 217°
2026-04-22 10:28 37.93474 23.95114 301 ft 25 kts 217°
2026-04-22 10:28 37.93328 23.94976 301 ft 28 kts 217°
2026-04-22 10:28 37.93168 23.94826 300 ft 30 kts 217°
2026-04-22 10:28 37.92998 23.94663 303 ft 31 kts 217°
2026-04-22 10:29 37.92828 23.94501 302 ft 30 kts 216°
2026-04-22 10:29 37.92668 23.94350 303 ft 20 kts 217°
2026-04-22 10:29 37.92575 23.94285 305 ft 14 kts 173°
2026-04-22 10:29 37.92509 23.94372 307 ft 14 kts 127°
2026-04-22 10:30 37.92501 23.94467 307 ft 13 kts 38°
2026-04-22 10:30 37.92557 23.94521 306 ft 4 kts 36°
2026-04-22 10:30 37.92593 23.94555 308 ft 12 kts 36°
2026-04-22 10:30 37.92847 23.94797 301 ft 81 kts 37°
2026-04-22 10:31 37.93466 23.95385 286 ft 138 kts 37°
2026-04-22 10:31 37.94314 23.96208 592 ft 155 kts 40°
2026-04-22 10:31 37.95174 23.97032 1176 ft 156 kts 39°
2026-04-22 10:31 37.96056 23.97885 1685 ft 163 kts 38°
2026-04-22 10:32 37.96961 23.98764 2260 ft 165 kts 37°
2026-04-22 10:32 37.97876 23.99644 2796 ft 170 kts 34°
2026-04-22 10:32 37.98818 24.00546 3395 ft 170 kts 34°
2026-04-22 10:32 37.99767 24.01468 3870 ft 180 kts 34°
2026-04-22 10:33 38.00813 24.02485 4206 ft 199 kts 35°
2026-04-22 10:33 38.01990 24.03617 4452 ft 227 kts 34°
2026-04-22 10:33 38.03317 24.04875 4887 ft 249 kts 34°
2026-04-22 10:33 38.04740 24.06226 5585 ft 261 kts 34°
2026-04-22 10:34 38.06155 24.07718 6414 ft 271 kts 45°
2026-04-22 10:34 38.07152 24.09741 7217 ft 280 kts 68°
2026-04-22 10:34 38.07524 24.12178 8054 ft 287 kts 88°
2026-04-22 10:34 38.07309 24.14767 8632 ft 303 kts 106°
2026-04-22 10:35 38.06491 24.17244 9437 ft 307 kts 124°
2026-04-22 10:35 38.05166 24.19380 10216 ft 313 kts 136°
2026-04-22 10:35 38.03450 24.21169 10548 ft 329 kts 156°
2026-04-22 10:35 38.01228 24.22056 10807 ft 346 kts 173°
2026-04-22 10:36 37.98842 24.22562 10937 ft 357 kts 176°
2026-04-22 10:36 37.96279 24.22969 10969 ft 385 kts 177°
2026-04-22 10:36 37.93554 24.23351 10973 ft 399 kts 177°
2026-04-22 10:36 37.90783 24.23755 10969 ft 402 kts 176°
2026-04-22 10:37 37.88003 24.24195 10962 ft 403 kts 176°
2026-04-22 10:37 37.82444 24.25158 11001 ft 404 kts 175°
2026-04-22 10:37 37.79698 24.25655 10965 ft 404 kts 175°
2026-04-22 10:38 37.76916 24.26155 10964 ft 404 kts 175°
2026-04-22 10:38 37.74133 24.26650 10968 ft 404 kts 175°
2026-04-22 10:38 37.71351 24.27141 10964 ft 404 kts 175°
2026-04-22 10:38 37.68569 24.27629 10965 ft 404 kts 176°
2026-04-22 10:39 37.65789 24.28114 10948 ft 404 kts 176°
2026-04-22 10:39 37.63005 24.28603 10944 ft 404 kts 174°
2026-04-22 10:39 37.60275 24.29529 10942 ft 410 kts 161°
2026-04-22 10:39 37.57760 24.31267 10949 ft 415 kts 147°
2026-04-22 10:40 37.55630 24.33739 10948 ft 420 kts 132°
2026-04-22 10:40 37.54042 24.36772 10949 ft 422 kts 117°
2026-04-22 10:40 37.53004 24.40236 10953 ft 424 kts 108°
2026-04-22 10:40 37.52094 24.43766 10957 ft 424 kts 109°
2026-04-22 10:41 37.51182 24.47299 10952 ft 424 kts 109°
2026-04-22 10:41 37.50267 24.50826 10967 ft 424 kts 109°
2026-04-22 10:41 37.49348 24.54348 11015 ft 423 kts 109°
2026-04-22 10:41 37.48425 24.57872 10984 ft 424 kts 109°
2026-04-22 10:42 37.47527 24.61304 10799 ft 411 kts 109°
2026-04-22 10:42 37.46652 24.64648 10557 ft 394 kts 109°
2026-04-22 10:42 37.45810 24.67861 10338 ft 380 kts 109°
2026-04-22 10:42 37.44993 24.70962 10103 ft 367 kts 109°
2026-04-22 10:43 37.44200 24.73965 9885 ft 355 kts 109°
2026-04-22 10:43 37.43436 24.76860 9770 ft 342 kts 109°
2026-04-22 10:43 37.42701 24.79636 9688 ft 328 kts 109°
2026-04-22 10:43 37.41995 24.82308 9571 ft 317 kts 109°
2026-04-22 10:44 37.41314 24.84881 9318 ft 314 kts 109°
2026-04-22 10:44 37.40624 24.87481 8879 ft 310 kts 110°
2026-04-22 10:44 37.39949 24.90032 8285 ft 306 kts 109°
2026-04-22 10:44 37.39281 24.92552 7730 ft 302 kts 109°
2026-04-22 10:45 37.38618 24.95042 7212 ft 302 kts 109°
2026-04-22 10:45 37.37951 24.97546 6924 ft 299 kts 109°
2026-04-22 10:45 37.37394 25.00010 6827 ft 288 kts 97°
2026-04-22 10:45 37.37524 25.02426 6698 ft 278 kts 72°
2026-04-22 10:46 37.38379 25.04574 6254 ft 279 kts 47°
2026-04-22 10:46 37.39860 25.06081 6016 ft 270 kts 27°
2026-04-22 10:46 37.41458 25.07290 5766 ft 266 kts 28°
2026-04-22 10:46 37.43031 25.08497 5376 ft 264 kts 28°
2026-04-22 10:47 37.44588 25.09701 4884 ft 261 kts 29°
2026-04-22 10:47 37.46132 25.10896 4253 ft 262 kts 29°
2026-04-22 10:47 37.47661 25.12081 3954 ft 250 kts 29°
2026-04-22 10:47 37.49093 25.13193 3750 ft 235 kts 29°
2026-04-22 10:48 37.50455 25.14310 3484 ft 233 kts 38°
2026-04-22 10:48 37.51473 25.15834 3274 ft 230 kts 60°
2026-04-22 10:48 37.52019 25.17688 3090 ft 219 kts 72°
2026-04-22 10:48 37.52440 25.19483 2849 ft 208 kts 72°
2026-04-22 10:49 37.52843 25.21189 2569 ft 196 kts 72°
2026-04-22 10:49 37.53127 25.22788 2388 ft 178 kts 87°
2026-04-22 10:49 37.53021 25.24223 2353 ft 157 kts 101°
2026-04-22 10:49 37.52819 25.25544 2321 ft 152 kts 101°
2026-04-22 10:50 37.52569 25.26825 2262 ft 150 kts 111°
2026-04-22 10:50 37.52107 25.27970 2194 ft 148 kts 126°
2026-04-22 10:50 37.51444 25.28947 2133 ft 146 kts 140°
2026-04-22 10:50 37.50674 25.29773 2069 ft 146 kts 141°
2026-04-22 10:51 37.49871 25.30541 1854 ft 144 kts 148°
2026-04-22 10:51 37.49039 25.31231 1596 ft 142 kts 149°
2026-04-22 10:51 37.48201 25.31885 1429 ft 141 kts 149°
2026-04-22 10:51 37.47369 25.32542 1197 ft 141 kts 148°
2026-04-22 10:52 37.46558 25.33220 979 ft 138 kts 150°
2026-04-22 10:52 37.45728 25.33789 757 ft 137 kts 157°
2026-04-22 10:52 37.44840 25.34233 560 ft 138 kts 162°
2026-04-22 10:52 37.43954 25.34628 407 ft 127 kts 161°
2026-04-22 10:53 37.43361 25.34890 412 ft 47 kts 160°
2026-04-22 10:53 37.43152 25.34982 412 ft 31 kts 160°
2026-04-22 10:53 37.42941 25.35075 412 ft 30 kts 160°
2026-04-22 10:53 37.42807 25.35133 411 ft 14 kts 161°
2026-04-22 10:54 37.42718 25.35150 410 ft 9 kts 118°
2026-04-22 10:54 37.42746 25.35163 410 ft 7 kts 341°
2026-04-22 10:54 37.42816 25.35132 410 ft 15 kts 340°
2026-04-22 10:54 37.42935 25.35079 413 ft 20 kts 340°
2026-04-22 10:55 37.43071 25.35018 412 ft 22 kts 340°
2026-04-22 10:55 37.43226 25.34949 413 ft 23 kts 340°
2026-04-22 10:55 37.43350 25.34895 412 ft 15 kts 341°
2026-04-22 10:55 37.43409 25.34797 409 ft 15 kts 294°
2026-04-22 10:56 37.43475 25.34724 408 ft 13 kts 341°
2026-04-22 10:56 37.43518 25.34689 405 ft 7 kts 284°
2026-04-22 10:56 37.43508 25.34648 404 ft 2 kts 250°
2026-04-22 10:56 37.43505 25.34638 407 ft 0 kts 250°